Hourly Weather Kizloyam

Today, 27 July, Tuesday

Time Temperature Precipitation Wind Pressure Humidity
00:00 +16°C° 0 mm 2 mps 750 mmHg 44%
01:00 +15°C° 0 mm 2 mps 750 mmHg 46%
02:00 +15°C° 0 mm 2 mps 750 mmHg 48%
03:00 +14°C° 0 mm 2 mps 750 mmHg 50%
04:00 +14°C° 0 mm 1 mps 750 mmHg 52%
05:00 +15°C° 0 mm 2 mps 750 mmHg 49%
06:00 +17°C° 0 mm 2 mps 750 mmHg 46%
07:00 +18°C° 0 mm 2 mps 750 mmHg 42%
08:00 +20°C° 0 mm 2 mps 750 mmHg 40%
09:00 +21°C° 0 mm 3 mps 750 mmHg 37%
10:00 +24°C° 0 mm 3 mps 750 mmHg 35%
11:00 +25°C° 0 mm 4 mps 750 mmHg 33%
12:00 +26°C° 0 mm 4 mps 749 mmHg 31%
13:00 +27°C° 0 mm 5 mps 749 mmHg 29%
14:00 +27°C° 0 mm 5 mps 749 mmHg 29%
15:00 +27°C° 0 mm 5 mps 748 mmHg 29%
16:00 +27°C° 0 mm 5 mps 748 mmHg 30%
17:00 +26°C° 0 mm 4 mps 748 mmHg 33%
18:00 +26°C° 0 mm 4 mps 747 mmHg 36%
19:00 +25°C° 0 mm 3 mps 747 mmHg 39%
20:00 +24°C° 0 mm 3 mps 747 mmHg 43%
21:00 +21°C° 0 mm 3 mps 747 mmHg 48%
22:00 +20°C° 0 mm 3 mps 747 mmHg 52%
23:00 +19°C° 0 mm 3 mps 747 mmHg 59%

Tomorrow, 28 July, Wednesday

Time Temperature Precipitation Wind Pressure Humidity
00:00 +18°C° 0 mm 2 mps 747 mmHg 65%
01:00 +17°C° 0 mm 2 mps 747 mmHg 71%
02:00 +16°C° 0 mm 2 mps 747 mmHg 74%
03:00 +16°C° 0 mm 2 mps 747 mmHg 76%
04:00 +15°C° 0 mm 2 mps 747 mmHg 79%
05:00 +16°C° 0 mm 2 mps 747 mmHg 75%
06:00 +18°C° 0 mm 3 mps 747 mmHg 71%
07:00 +19°C° 0 mm 3 mps 747 mmHg 67%
08:00 +20°C° 0 mm 3 mps 747 mmHg 57%
09:00 +22°C° 0 mm 4 mps 747 mmHg 48%
10:00 +25°C° 0 mm 5 mps 747 mmHg 38%
11:00 +25°C° 0 mm 5 mps 747 mmHg 36%
12:00 +26°C° 0 mm 6 mps 746 mmHg 35%
13:00 +26°C° 0 mm 6 mps 746 mmHg 33%
14:00 +27°C° 0 mm 6 mps 746 mmHg 31%
15:00 +27°C° 0 mm 6 mps 746 mmHg 29%
16:00 +27°C° 0 mm 6 mps 746 mmHg 28%
17:00 +27°C° 0 mm 6 mps 746 mmHg 29%
18:00 +26°C° 0 mm 5 mps 746 mmHg 30%
19:00 +26°C° 0 mm 4 mps 746 mmHg 31%
20:00 +24°C° 0 mm 3 mps 746 mmHg 34%
21:00 +21°C° 0 mm 3 mps 746 mmHg 38%
22:00 +19°C° 0 mm 2 mps 746 mmHg 41%
23:00 +18°C° 0 mm 2 mps 746 mmHg 43%

Day after tomorrow, 29 July, Thursday

Time Temperature Precipitation Wind Pressure Humidity
00:00 +18°C° 0 mm 1 mps 746 mmHg 45%
01:00 +16°C° 0 mm 1 mps 746 mmHg 47%
02:00 +16°C° 0 mm 1 mps 746 mmHg 48%
03:00 +15°C° 0 mm 1 mps 746 mmHg 49%
04:00 +14°C° 0 mm 0 mps 746 mmHg 50%
05:00 +15°C° 0 mm 0 mps 746 mmHg 46%
06:00 +17°C° 0 mm 0 mps 747 mmHg 42%
07:00 +21°C° 0 mm 1 mps 747 mmHg 38%
08:00 +23°C° 0 mm 1 mps 747 mmHg 35%
09:00 +24°C° 0 mm 2 mps 747 mmHg 32%
10:00 +26°C° 0 mm 3 mps 747 mmHg 29%
11:00 +27°C° 0 mm 4 mps 746 mmHg 28%
12:00 +28°C° 0 mm 4 mps 746 mmHg 27%
13:00 +29°C° 0 mm 4 mps 746 mmHg 25%
14:00 +30°C° 0 mm 4 mps 746 mmHg 25%
15:00 +30°C° 0 mm 4 mps 745 mmHg 24%
16:00 +30°C° 0 mm 4 mps 745 mmHg 23%
17:00 +29°C° 0 mm 3 mps 744 mmHg 28%
18:00 +28°C° 0 mm 2 mps 744 mmHg 32%
19:00 +25°C° 0 mm 0 mps 744 mmHg 36%
20:00 +27°C° 0 mm 1 mps 744 mmHg 36%
21:00 +26°C° 0 mm 2 mps 743 mmHg 35%
22:00 +25°C° 0 mm 3 mps 743 mmHg 35%
23:00 +26°C° 0 mm 4 mps 743 mmHg 35%

30 July, Friday

Time Temperature Precipitation Wind Pressure Humidity
00:00 +26°C° 0 mm 4 mps 742 mmHg 35%
01:00 +26°C° 0 mm 5 mps 742 mmHg 36%
02:00 +26°C° 0 mm 6 mps 741 mmHg 35%
03:00 +26°C° 0 mm 6 mps 741 mmHg 35%
04:00 +26°C° 0 mm 7 mps 741 mmHg 35%
05:00 +26°C° 0 mm 6 mps 741 mmHg 41%
06:00 +26°C° 0 mm 6 mps 741 mmHg 47%
07:00 +24°C° 0 mm 6 mps 741 mmHg 52%
08:00 +27°C° 0 mm 7 mps 742 mmHg 51%
09:00 +28°C° 0 mm 7 mps 742 mmHg 50%
10:00 +29°C° 0 mm 7 mps 742 mmHg 48%
11:00 +30°C° 0 mm 7 mps 742 mmHg 44%
12:00 +32°C° 0 mm 7 mps 742 mmHg 41%
13:00 +33°C° 0 mm 8 mps 742 mmHg 37%
14:00 +33°C° 0.1 mm 7 mps 742 mmHg 38%
15:00 +32°C° 0.1 mm 6 mps 742 mmHg 40%
16:00 +30°C° 0.1 mm 5 mps 742 mmHg 41%
17:00 +30°C° 0 mm 4 mps 742 mmHg 42%
18:00 +30°C° 0 mm 4 mps 742 mmHg 42%
19:00 +30°C° 0 mm 3 mps 742 mmHg 42%
20:00 +28°C° 0.1 mm 2 mps 742 mmHg 49%
21:00 +26°C° 0.1 mm 2 mps 742 mmHg 55%
22:00 +24°C° 0.1 mm 1 mps 743 mmHg 62%
23:00 +23°C° 0.1 mm 1 mps 743 mmHg 65%

31 July, Saturday

Time Temperature Precipitation Wind Pressure Humidity
00:00 +23°C° 0.1 mm 1 mps 743 mmHg 68%
01:00 +23°C° 0.1 mm 2 mps 743 mmHg 72%
02:00 +23°C° 0 mm 1 mps 743 mmHg 72%
03:00 +23°C° 0 mm 1 mps 743 mmHg 72%
04:00 +23°C° 0 mm 1 mps 743 mmHg 72%
05:00 +22°C° 0.9 mm 1 mps 743 mmHg 79%
06:00 +22°C° 0.9 mm 1 mps 744 mmHg 86%
07:00 +21°C° 0.9 mm 1 mps 744 mmHg 93%
08:00 +20°C° 0.7 mm 2 mps 744 mmHg 92%
09:00 +21°C° 0.7 mm 2 mps 744 mmHg 91%
10:00 +21°C° 0.7 mm 2 mps 744 mmHg 90%
11:00 +23°C° 0.4 mm 2 mps 744 mmHg 83%
12:00 +25°C° 0.4 mm 3 mps 744 mmHg 76%
13:00 +26°C° 0.4 mm 3 mps 744 mmHg 68%
14:00 +27°C° 0.5 mm 2 mps 744 mmHg 64%
15:00 +28°C° 0.5 mm 2 mps 744 mmHg 60%
16:00 +29°C° 0.5 mm 1 mps 744 mmHg 56%
17:00 +29°C° 0 mm 1 mps 744 mmHg 57%
18:00 +29°C° 0 mm 1 mps 744 mmHg 58%
19:00 +28°C° 0 mm 1 mps 744 mmHg 59%
20:00 +27°C° 0 mm 1 mps 744 mmHg 63%
21:00 +26°C° 0 mm 1 mps 744 mmHg 68%
22:00 +24°C° 0 mm 1 mps 744 mmHg 72%
23:00 +24°C° 0 mm 2 mps 744 mmHg 72%

1 August, Sunday

Time Temperature Precipitation Wind Pressure Humidity
00:00 +24°C° 0 mm 2 mps 744 mmHg 73%
01:00 +24°C° 0 mm 2 mps 744 mmHg 74%
02:00 +23°C° 0 mm 2 mps 744 mmHg 76%
03:00 +23°C° 0 mm 2 mps 744 mmHg 78%
04:00 +21°C° 0 mm 2 mps 744 mmHg 80%
05:00 +23°C° 0 mm 2 mps 745 mmHg 75%
06:00 +25°C° 0 mm 2 mps 745 mmHg 69%
07:00 +26°C° 0 mm 2 mps 745 mmHg 64%
08:00 +28°C° 0 mm 2 mps 745 mmHg 57%
09:00 +30°C° 0 mm 2 mps 745 mmHg 50%
10:00 +32°C° 0 mm 2 mps 745 mmHg 44%
11:00 +34°C° 0 mm 3 mps 745 mmHg 40%
12:00 +35°C° 0 mm 3 mps 745 mmHg 36%
13:00 +36°C° 0 mm 3 mps 745 mmHg 32%
14:00 +36°C° 0 mm 3 mps 745 mmHg 30%
15:00 +37°C° 0 mm 3 mps 745 mmHg 28%
16:00 +37°C° 0 mm 3 mps 744 mmHg 26%
17:00 +36°C° 0 mm 2 mps 744 mmHg 29%
18:00 +35°C° 0 mm 2 mps 744 mmHg 32%
19:00 +34°C° 0 mm 2 mps 744 mmHg 34%
20:00 +32°C° 0 mm 1 mps 744 mmHg 36%
21:00 +30°C° 0 mm 1 mps 745 mmHg 38%
22:00 +29°C° 0 mm 1 mps 745 mmHg 40%
23:00 +28°C° 0 mm 1 mps 745 mmHg 42%
Show more